Location: Piotrkow Trybunalski
(51.4000°N, 19.6830°E)
Time: 15:54:51
(UTC+01:00)

Explorer 7 - Pass Details

Date: 04 February 2023
Orbit: 478 x 657 km, 50.3° (Epoch: 19 March)

Event Time Altitude Azimuth Distance (km) Brightness Sun altitude
Rises 17:24:09 0° 282° (WNW) 2,869 11.7 -7.9°
Reaches altitude 10° 17:26:56 10° 265° (W) 1,993 11.3 -8.3°
Maximum altitude 17:30:12 19° 219° (SW) 1,494 9.8 -8.8°
Drops below altitude 10° 17:33:33 10° 174° (S) 2,043 9.8 -9.3°
Sets 17:36:27 0° 157° (SSE) 2,966 10.5 -9.7°
